DW9210 Weather Reports


Display with metric or nautical units.
time (UTC)temp
F
wind
direction
speed
MPH
gust
MPH
rain 1hr
in
rain 24hr
in
rain mn
in
humidity
%
barometer
mb
20260506032003 63 228 8.0 21.0 0.00 0.05 0.05 82 1006.2
20260506031503 64 225 8.0 19.0 0.00 0.05 0.05 80 1006.3
20260506031003 64 228 7.0 19.0 0.00 0.05 0.05 78 1006.3
20260506030503 64 233 7.0 22.0 0.00 0.05 0.05 78 1006.2
20260506030003 64 231 7.0 22.0 0.00 0.05 0.05 78 1006.2
20260506025503 63 223 5.0 15.0 0.00 0.05 0.05 80 1006.1
20260506025003 63 219 4.0 11.0 0.00 0.05 0.05 82 1006.1
20260506024503 62 214 5.0 15.0 0.00 0.05 0.05 83 1005.8
20260506024024 62 211 5.0 16.0 0.00 0.05 0.05 85 1005.8
20260506023503 61 201 3.0 16.0 0.00 0.05 0.05 88 1005.8
20260506023003 60 180 1.0 6.0 0.00 0.05 0.05 90 1005.7
20260506022503 60 150 1.0 3.0 0.00 0.05 0.05 91 1005.8
20260506022003 60 145 1.0 3.0 0.00 0.05 0.05 91 1005.7
20260506021503 60 173 1.0 3.0 0.00 0.05 0.05 91 1005.7
20260506021003 60 199 1.0 2.0 0.00 0.05 0.05 91 1005.9
20260506020503 60 207 0.0 2.0 0.00 0.05 0.05 91 1005.5
20260506020003 60 194 0.0 2.0 0.00 0.05 0.05 91 1005.5
20260506015503 60 187 0.0 2.0 0.01 0.05 0.05 91 1005.4
20260506015024 60 171 0.0 1.0 0.01 0.05 0.05 91 1005.2
20260506014524 61 166 0.0 1.0 0.02 0.05 0.05 91 1005.2
20260506014003 61 168 0.0 1.0 0.02 0.05 0.05 91 1005.2
20260506013503 61 167 0.0 2.0 0.03 0.05 0.05 90 1005.3
20260506013003 61 167 0.0 2.0 0.04 0.05 0.05 90 1005.3
20260506012503 61 168 0.0 1.0 0.04 0.05 0.05 89 1005.2
20260506012003 61 192 0.0 2.0 0.04 0.05 0.05 89 1005.3
20260506011504 61 187 0.0 3.0 0.04 0.05 0.05 88 1005.4
20260506011003 61 186 1.0 3.0 0.04 0.05 0.05 88 1005.4
20260506010503 61 167 1.0 3.0 0.04 0.05 0.05 88 1005.2
20260506010003 61 155 1.0 4.0 0.04 0.05 0.05 88 1005.1
20260506005524 62 175 2.0 5.0 0.03 0.04 0.04 88 1005.3
20260506005003 62 174 2.0 5.0 0.03 0.04 0.04 88 1005.7
20260506004504 62 150 3.0 7.0 0.02 0.03 0.03 88 1005.4
20260506004003 62 142 3.0 7.0 0.02 0.03 0.03 88 1005.2
20260506003503 62 135 2.0 7.0 0.01 0.02 0.02 91 1005.1
20260506003003 62 92 1.0 4.0 0.01 0.01 0.01 89 1005.9
20260506002503 62 353 0.0 2.0 0.01 0.01 0.01 89 1006.3
20260506002024 62 7 0.0 1.0 0.01 0.01 0.01 88 1006.1
20260506001503 63 7 0.0 1.0 0.01 0.01 0.01 87 1006.0
20260506001003 63 7 0.0 1.0 0.01 0.01 0.01 88 1006.0
20260506000503 63 7 0.0 1.0 0.01 0.01 0.01 87 1005.9
20260506000003 63 7 0.0 1.0 0.01 0.01 0.01 86 1006.0
20260505235503 64 7 0.0 1.0 0.01 0.01 0.01 85 1006.0
20260505235024 64 339 0.0 2.0 0.01 0.01 0.01 84 1006.1
20260505234503 64 284 1.0 2.0 0.01 0.01 0.01 82 1006.1
20260505234003 65 253 1.0 2.0 0.01 0.01 0.01 80 1006.2
20260505233503 65 196 1.0 3.0 0.01 0.01 0.01 78 1006.2
20260505233003 65 192 1.0 3.0 0.00 0.00 0.00 77 1006.2
20260505232503 65 194 1.0 3.0 0.00 0.00 0.00 77 1006.1
20260505232003 65 172 1.0 4.0 0.00 0.00 0.00 77 1006.1
20260505231503 65 155 1.0 4.0 0.00 0.00 0.00 76 1005.9
20260505231003 66 159 1.0 3.0 0.00 0.00 0.00 76 1005.9
20260505230503 66 150 1.0 4.0 0.00 0.00 0.00 76 1006.0
20260505230003 66 146 1.0 4.0 0.00 0.00 0.00 76 1006.1
20260505225503 66 142 1.0 4.0 0.00 0.00 0.00 76 1006.1
20260505225003 66 142 2.0 7.0 0.00 0.00 0.00 76 1006.0
20260505224503 66 139 1.0 7.0 0.00 0.00 0.00 76 1006.1
20260505224003 66 134 1.0 4.0 0.00 0.00 0.00 78 1006.1
20260505223524 66 136 2.0 5.0 0.00 0.00 0.00 78 1006.1
20260505223024 66 138 1.0 5.0 0.00 0.00 0.00 78 1006.2
20260505222503 66 143 1.0 3.0 0.00 0.00 0.00 78 1006.3
20260505222003 66 142 0.0 3.0 0.00 0.00 0.00 77 1006.3
20260505221503 66 141 0.0 2.0 0.00 0.00 0.00 77 1006.5
20260505221003 66 144 1.0 3.0 0.00 0.00 0.00 77 1006.6
20260505220503 66 143 1.0 3.0 0.00 0.00 0.00 76 1006.6
20260505220003 66 142 1.0 4.0 0.00 0.00 0.00 76 1006.8
20260505215503 66 158 1.0 4.0 0.00 0.00 0.00 76 1006.8
20260505215003 66 170 1.0 2.0 0.00 0.00 0.00 75 1006.9
20260505214503 66 176 1.0 5.0 0.00 0.00 0.00 73 1007.0
20260505214003 66 184 1.0 5.0 0.00 0.00 0.00 73 1007.1
20260505213503 66 187 2.0 6.0 0.00 0.00 0.00 74 1007.1
20260505213003 66 194 2.0 6.0 0.00 0.00 0.00 72 1007.1
20260505212524 66 203 2.0 6.0 0.00 0.00 0.00 72 1007.2
20260505212003 66 208 2.0 8.0 0.00 0.00 0.00 73 1007.2
20260505211503 66 200 3.0 8.0 0.00 0.00 0.00 73 1007.2
20260505211003 66 202 3.0 8.0 0.00 0.00 0.00 73 1007.2
20260505210503 66 212 4.0 15.0 0.00 0.00 0.00 72 1007.2
20260505210003 66 215 4.0 15.0 0.00 0.00 0.00 72 1007.3
20260505205503 67 218 4.0 9.0 0.00 0.00 0.00 72 1007.3
20260505205003 67 219 4.0 11.0 0.00 0.00 0.00 72 1007.3
20260505204503 67 219 5.0 11.0 0.00 0.00 0.00 73 1007.3
20260505204003 68 218 4.0 14.0 0.00 0.00 0.00 72 1007.3
20260505203503 68 212 5.0 16.0 0.00 0.00 0.00 70 1007.3
20260505203003 68 208 5.0 16.0 0.00 0.00 0.00 69 1007.2
20260505202503 69 205 6.0 20.0 0.00 0.00 0.00 67 1007.2
20260505202003 70 204 6.0 20.0 0.00 0.00 0.00 65 1007.2
20260505201503 70 199 4.0 13.0 0.00 0.00 0.00 64 1007.1
20260505201003 71 203 5.0 13.0 0.00 0.00 0.00 62 1007.1
20260505200503 71 211 5.0 14.0 0.00 0.00 0.00 61 1007.2
20260505200003 71 207 5.0 19.0 0.00 0.00 0.00 61 1007.2
20260505195503 71 203 6.0 19.0 0.00 0.00 0.00 60 1007.3
20260505195003 71 199 5.0 19.0 0.00 0.00 0.00 60 1007.3
20260505194503 72 207 4.0 11.0 0.00 0.00 0.00 61 1007.4
20260505194003 72 214 4.0 13.0 0.00 0.00 0.00 61 1007.4
20260505193503 72 214 6.0 14.0 0.00 0.00 0.00 60 1007.6
20260505193003 72 211 6.0 16.0 0.00 0.00 0.00 59 1007.8
20260505192524 73 203 4.0 16.0 0.00 0.00 0.00 61 1007.9
20260505192003 72 205 4.0 14.0 0.00 0.00 0.00 60 1007.9
20260505191503 72 203 6.0 19.0 0.00 0.00 0.00 60 1008.1
20260505191003 72 204 7.0 19.0 0.00 0.00 0.00 58 1008.1
20260505190503 72 205 6.0 15.0 0.00 0.00 0.00 60 1008.2
20260505190003 72 197 5.0 13.0 0.00 0.00 0.00 60 1008.2
20260505185503 71 203 5.0 13.0 0.00 0.00 0.00 60 1008.2
20260505185003 71 212 6.0 17.0 0.00 0.00 0.00 60 1008.2
20260505184524 72 211 6.0 17.0 0.00 0.00 0.00 59 1008.1
20260505184003 72 203 5.0 18.0 0.00 0.00 0.00 59 1008.1
20260505183503 72 202 5.0 18.0 0.00 0.00 0.00 60 1008.3
20260505183024 72 212 4.0 15.0 0.00 0.00 0.00 65 1008.4
20260505182524 72 212 5.0 15.0 0.00 0.00 0.00 62 1008.5
20260505182003 71 211 5.0 15.0 0.00 0.00 0.00 62 1008.5
20260505181503 71 214 4.0 15.0 0.00 0.00 0.00 62 1008.5
20260505181003 71 214 3.0 10.0 0.00 0.00 0.00 63 1008.6
20260505180524 71 208 4.0 13.0 0.00 0.00 0.00 62 1008.5
20260505180003 71 213 5.0 15.0 0.00 0.00 0.00 63 1008.5
20260505175503 71 212 5.0 15.0 0.00 0.00 0.00 61 1008.5
20260505175024 71 209 4.0 14.0 0.00 0.00 0.00 62 1008.5
20260505174503 71 207 5.0 14.0 0.00 0.00 0.00 64 1008.6
20260505174003 71 205 6.0 12.0 0.00 0.00 0.00 64 1008.7
20260505173503 71 218 6.0 20.0 0.00 0.00 0.00 62 1008.8
20260505173003 71 217 7.0 23.0 0.00 0.00 0.00 62 1009.0
20260505172503 71 211 6.0 23.0 0.00 0.00 0.00 61 1009.0
20260505172003 72 213 5.0 18.0 0.00 0.00 0.00 62 1009.0
20260505171503 72 214 4.0 13.0 0.00 0.00 0.00 63 1009.0
20260505171003 71 218 4.0 14.0 0.00 0.00 0.00 63 1009.1
20260505170503 71 216 5.0 18.0 0.00 0.00 0.00 63 1009.1
20260505170003 71 213 6.0 18.0 0.00 0.00 0.00 62 1009.1
20260505165503 71 213 6.0 15.0 0.00 0.00 0.00 62 1009.1
20260505165024 71 211 6.0 17.0 0.00 0.00 0.00 61 1009.2
20260505164503 71 206 6.0 17.0 0.00 0.00 0.00 61 1009.1
20260505164003 71 205 5.0 12.0 0.00 0.00 0.00 63 1009.1
20260505163503 70 206 4.0 15.0 0.00 0.00 0.00 63 1009.2
20260505163003 70 206 5.0 15.0 0.00 0.00 0.00 64 1009.3
20260505162524 70 206 6.0 17.0 0.00 0.00 0.00 64 1009.3
20260505162003 70 205 6.0 17.0 0.00 0.00 0.00 63 1009.3
20260505161524 70 203 5.0 16.0 0.00 0.00 0.00 64 1009.4
20260505161003 70 204 6.0 16.0 0.00 0.00 0.00 64 1009.5
20260505160503 70 201 5.0 13.0 0.00 0.00 0.00 63 1009.4
20260505153003 69 204 5.0 14.0 0.00 0.00 0.00 66 1009.2
20260505152503 69 202 5.0 16.0 0.00 0.00 0.00 63 1009.1
20260505152003 69 202 5.0 16.0 0.00 0.00 0.00 64 1009.1
20260505151503 69 203 5.0 10.0 0.00 0.00 0.00 64 1009.1
20260505151003 68 209 4.0 14.0 0.00 0.00 0.00 65 1009.1
20260505150503 68 204 4.0 14.0 0.00 0.00 0.00 66 1009.2
20260505140524 66 198 3.0 9.0 0.00 0.04 0.00 66 1009.1
20260505125024 65 183 2.0 9.0 0.00 0.10 0.00 68 1009.4
20260505124503 65 185 2.0 7.0 0.00 0.10 0.00 68 1009.6
20260505124003 65 194 2.0 6.0 0.00 0.10 0.00 68 1009.5
20260505123503 65 201 2.0 5.0 0.00 0.11 0.00 68 1009.5
20260505123003 64 200 1.0 5.0 0.00 0.11 0.00 68 1009.4
20260505122524 64 199 2.0 5.0 0.00 0.12 0.00 69 1009.4
20260505122003 64 204 2.0 5.0 0.00 0.12 0.00 68 1009.4
20260505121503 64 222 1.0 3.0 0.00 0.12 0.00 69 1009.4
20260505121003 63 231 2.0 3.0 0.00 0.12 0.00 70 1009.4
20260505120503 63 232 1.0 3.0 0.00 0.12 0.00 70 1009.4
20260505120004 62 231 1.0 3.0 0.00 0.12 0.00 71 1009.3
20260505115503 62 237 1.0 5.0 0.00 0.12 0.00 72 1009.4
20260505115003 62 230 2.0 5.0 0.00 0.12 0.00 72 1009.5
20260505114503 62 228 2.0 4.0 0.00 0.12 0.00 71 1009.4
20260505114003 62 241 1.0 5.0 0.00 0.12 0.00 71 1009.4
20260505113503 62 249 2.0 9.0 0.00 0.12 0.00 71 1009.6
20260505113003 62 256 3.0 9.0 0.00 0.12 0.00 71 1009.6
20260505112503 62 258 3.0 6.0 0.00 0.12 0.00 71 1009.6
20260505112003 62 245 2.0 7.0 0.00 0.12 0.00 71 1009.6
20260505111503 62 241 2.0 7.0 0.00 0.12 0.00 72 1009.3
20260505111003 61 246 2.0 5.0 0.00 0.12 0.00 71 1009.3
20260505110503 61 247 3.0 10.0 0.00 0.12 0.00 72 1009.2
20260505102003 60 219 2.0 7.0 0.00 0.14 0.00 71 1008.4
20260505101524 60 216 2.0 7.0 0.00 0.14 0.00 71 1008.3
20260505101003 60 212 2.0 7.0 0.00 0.14 0.00 71 1008.2
20260505100503 61 213 3.0 7.0 0.00 0.14 0.00 71 1008.1
20260505100003 61 209 3.0 10.0 0.00 0.15 0.00 70 1008.0
20260505095503 61 202 2.0 10.0 0.00 0.15 0.00 71 1008.0
20260505095003 61 207 2.0 6.0 0.00 0.17 0.00 71 1007.8
20260505094503 61 214 2.0 8.0 0.00 0.19 0.00 70 1007.8
20260505094024 61 211 3.0 10.0 0.00 0.19 0.00 70 1007.8
20260505093524 61 210 3.0 10.0 0.00 0.20 0.00 70 1007.8
20260505093003 61 213 3.0 7.0 0.00 0.20 0.00 69 1007.7
20260505092503 62 208 3.0 9.0 0.00 0.20 0.00 69 1007.8
20260505092024 62 200 3.0 9.0 0.00 0.20 0.00 69 1007.8
20260505091503 62 200 3.0 9.0 0.00 0.20 0.00 68 1007.8
20260505091003 62 206 3.0 9.0 0.00 0.20 0.00 68 1007.8
20260505090503 62 209 3.0 9.0 0.00 0.20 0.00 67 1007.7
20260505090003 62 208 4.0 11.0 0.00 0.20 0.00 67 1007.7
20260505085524 63 207 3.0 11.0 0.00 0.20 0.00 67 1007.7
20260505085003 63 204 3.0 12.0 0.00 0.20 0.00 67 1007.6
20260505084524 63 207 3.0 12.0 0.00 0.20 0.00 66 1007.5
20260505084003 63 208 3.0 10.0 0.00 0.20 0.00 66 1007.5
20260505083503 63 206 3.0 12.0 0.00 0.20 0.00 66 1007.5
20260505083003 64 210 4.0 12.0 0.00 0.20 0.00 66 1007.4
20260505082503 64 208 5.0 12.0 0.00 0.20 0.00 65 1007.3
20260505082003 64 207 4.0 12.0 0.00 0.20 0.00 65 1007.1
20260505081503 64 208 4.0 11.0 0.00 0.20 0.00 65 1007.1
20260505081003 64 206 4.0 10.0 0.00 0.20 0.00 65 1007.0
20260505080503 64 207 4.0 10.0 0.00 0.20 0.00 65 1007.0
20260505080024 64 208 4.0 10.0 0.00 0.20 0.00 65 1007.1
20260505075503 64 210 3.0 10.0 0.00 0.20 0.00 65 1007.1
20260505075003 64 210 4.0 10.0 0.00 0.20 0.00 65 1007.2
20260505074503 64 208 4.0 10.0 0.00 0.20 0.00 64 1007.2
20260505074024 64 210 4.0 9.0 0.00 0.20 0.00 64 1007.1
20260505073503 64 210 3.0 13.0 0.00 0.20 0.00 64 1007.1
20260505073003 64 208 4.0 13.0 0.00 0.20 0.00 64 1007.1
20260505072503 65 207 4.0 12.0 0.00 0.20 0.00 64 1007.0
20260505072003 65 208 5.0 13.0 0.00 0.20 0.00 64 1007.1
20260505071503 64 208 5.0 13.0 0.00 0.20 0.00 64 1007.1
20260505071024 64 207 5.0 12.0 0.00 0.20 0.00 65 1007.1
20260505070503 64 205 4.0 12.0 0.00 0.20 0.00 64 1007.1
20260505070003 64 207 4.0 11.0 0.00 0.20 0.00 65 1007.1
20260505065524 64 206 4.0 12.0 0.00 0.20 0.00 65 1007.0
20260505065003 64 207 4.0 13.0 0.00 0.20 0.00 65 1006.9
20260505064503 64 207 5.0 13.0 0.00 0.20 0.00 65 1007.0
20260505064024 64 205 5.0 13.0 0.00 0.20 0.00 65 1007.0
20260505063503 64 205 5.0 13.0 0.00 0.20 0.00 65 1007.0
20260505063024 64 204 4.0 13.0 0.00 0.20 0.00 65 1007.0
20260505062503 64 207 4.0 14.0 0.00 0.20 0.00 65 1007.0
20260505062003 64 203 4.0 14.0 0.00 0.20 0.00 66 1007.0
20260505061503 64 200 4.0 12.0 0.00 0.20 0.00 65 1007.1
20260505061003 64 206 4.0 11.0 0.00 0.20 0.00 66 1007.1
20260505060503 64 202 4.0 11.0 0.00 0.20 0.00 66 1007.2
20260505060003 64 197 4.0 10.0 0.00 0.20 0.00 67 1007.2
20260505055503 64 203 3.0 8.0 0.00 0.20 0.00 67 1007.2
20260505055003 64 208 3.0 9.0 0.00 0.20 0.00 67 1007.1
20260505054503 64 200 4.0 9.0 0.00 0.20 0.00 67 1007.2
20260505054003 64 190 4.0 9.0 0.00 0.20 0.00 67 1007.2
20260505053503 63 193 3.0 8.0 0.00 0.20 0.00 68 1007.3
20260505053024 63 194 3.0 8.0 0.00 0.20 0.00 68 1007.4
20260505052503 63 191 3.0 8.0 0.00 0.20 0.00 68 1007.3
20260505052003 63 195 2.0 6.0 0.00 0.20 0.00 68 1007.5
20260505051503 64 192 2.0 6.0 0.00 0.20 0.00 68 1007.6
20260505051003 64 195 3.0 7.0 0.00 0.20 0.00 67 1007.5
20260505050503 64 203 3.0 8.0 0.00 0.20 0.00 67 1007.6
20260505041503 64 204 3.0 7.0 0.00 0.20 0.00 67 1007.5
20260505041003 65 202 3.0 8.0 0.00 0.20 0.00 66 1007.4
20260505040503 65 200 3.0 8.0 0.00 0.20 0.00 66 1007.3
20260505040003 65 200 3.0 8.0 0.00 0.20 0.00 66 1007.3
20260505035503 65 199 2.0 7.0 0.00 0.20 0.20 66 1007.2
20260505035003 65 201 2.0 6.0 0.00 0.20 0.20 65 1007.2
20260505034503 65 209 2.0 5.0 0.00 0.20 0.20 65 1007.2
20260505034003 66 200 2.0 6.0 0.00 0.20 0.20 65 1007.2
20260505033503 66 200 2.0 6.0 0.00 0.20 0.20 65 1007.1
20260505033003 66 203 2.0 6.0 0.00 0.20 0.20 65 1007.2
20260505032503 66 199 2.0 7.0 0.00 0.20 0.20 65 1007.1